Regional Weather Roundup
Issued by NWS

Home | Current Version | Previous Version | Graphics & Text | Print | Product List | Glossary On
Versions: 1 2 3 4 5 6 7 8 9 10 11 12 13 14 15 16 17 18 19 20 21 22 23 24 25 26 27 28 29 30 31 32 33 34 35 36 37 38 39 40 41 42 43 44 45 46 47 48 49 50
705
ASUS43 KBIS 011002
RWRND

NORTH DAKOTA REGIONAL WEATHER ROUNDUP
NATIONAL WEATHER SERVICE BISMARCK ND
400 AM CST WED MAR 01 2017

NOTE: "FAIR" INDICATES FEW OR NO CLOUDS BELOW 12,000 FEET WITH NO
SIGNIFICANT WEATHER AND/OR OBSTRUCTIONS TO VISIBILITY.


NDZ001>003-009>011-017-011100-
NORTHWEST NORTH DAKOTA

CITY           SKY/WX    TMP DP  RH WIND       PRES   REMARKS
WILLISTON      CLOUDY    15  10  80 W8        29.99R WCI   4
MINOT          FLURRIES  14  10  84 CALM      29.94R
$$

NDZ018>021-031>035-040>046-011100-
SOUTHWEST NORTH DAKOTA

CITY           SKY/WX    TMP DP  RH WIND       PRES   REMARKS
BISMARCK       CLOUDY    16  12  84 NE7       29.93R WCI   6
DICKINSON      CLOUDY    24  20  84 NW18G28   29.89R WCI  10
GARRISON         N/A     15  11  83 N10       29.92R WCI   2
HETTINGER ARPT CLOUDY    26  22  84 NW17      29.91R WCI  13
$$

NDZ004>008-012>016-024-026-027-054-011100-
NORTHEAST NORTH DAKOTA

CITY           SKY/WX    TMP DP  RH WIND       PRES   REMARKS
GRAND FORKS    CLEAR      9  -1  64 NW8       29.94S WCI  -3
GRND FRKS AFB  CLEAR      7   0  74 N8        29.94S WCI  -6
DEVILS LAKE    LGT SNOW   8   3  80 NW8       29.95R WCI  -4
$$

NDZ022-023-025-028>030-036>039-047>053-011100-
SOUTHEAST NORTH DAKOTA

CITY           SKY/WX    TMP DP  RH WIND       PRES   REMARKS
FARGO          CLOUDY    17  12  80 N14       29.91R WCI   3
JAMESTOWN      MOCLDY    12   7  80 NW10      29.90S WCI  -1
$$





USA.gov is the U.S. government's official web portal to all federal, state and local government web resources and services.